Weather History for Orr, MN

Change the Weather History Date:

Tuesday, April 22, 2014

  Actual Average Record
Temperature  
Mean Temperature 40 °F -  
Max Temperature 51 °F 53 °F 68 °F (1998)
Min Temperature 28 °F 28 °F 17 °F (2001)
Degree Days  
Heating Degree Days 26    
Moisture  
Dew Point 21 °F    
Average Humidity 51    
Maximum Humidity 86    
Minimum Humidity 24    
Precipitation  
Precipitation 0.00 in - - ()
Sea Level Pressure  
Sea Level Pressure 30.06 in    
Wind  
Wind Speed 5 mph (NW)    
Max Wind Speed 9 mph    
Max Gust Speed -    
Visibility 10 miles    
Events      
Averages and records for this station are not official NWS values.
T = Trace of Precipitation, MM = Missing Value Source: NWS Daily Summary

Daily Weather History Graph

Daily Weather History Graph

Search for Another Location

Airport:

Trip Planner

Search our weather history database for the weather conditions in past years. The results will help you decide how hot, cold, wet, or windy it might be!

Date:

Astronomy

Apr. 22, 2014 Rise Set
Actual Time 6:08 AM CDT 8:11 PM CDT
Civil Twilight 5:35 AM CDT 8:45 PM CDT
Nautical Twilight 4:54 AM CDT 9:27 PM CDT
Astronomical Twilight 4:07 AM CDT 10:13 PM CDT
Moon 2:29 AM CDT (4/22) 12:43 PM CDT (4/22)
Length of Visible Light 15h 10m
Length of Day
14h 03m
Last Quarter, 46% of the Moon is Illuminated
Apr 22
Last Quarter
Apr 29
New
May 6
First Quarter
May 14
Full
May 21
Last Quarter

Hourly Weather History & Observations

Time (CDT) Temp. Windchill Dew Point Humidity Pressure Visibility Wind Dir Wind Speed Gust Speed Precip Events Conditions
12:14 AM 35.6 °F 30.7 °F 24.8 °F 65% 30.03 in 10.0 mi NW 5.8 mph - N/A   Overcast
12:33 AM 35.6 °F 30.7 °F 24.8 °F 65% 30.03 in 10.0 mi NW 5.8 mph - N/A   Overcast
12:54 AM 35.6 °F 29.9 °F 24.8 °F 65% 30.03 in 10.0 mi NW 6.9 mph - N/A   Overcast
1:13 AM 35.6 °F 29.2 °F 24.8 °F 65% 30.04 in 10.0 mi WNW 8.1 mph - N/A   Overcast
1:34 AM 35.6 °F 29.9 °F 24.8 °F 65% 30.04 in 10.0 mi NW 6.9 mph - N/A   Overcast
1:53 AM 35.6 °F 30.7 °F 24.8 °F 65% 30.04 in 10.0 mi NW 5.8 mph - N/A   Overcast
2:14 AM 33.8 °F 29.6 °F 24.8 °F 70% 30.05 in 10.0 mi NW 4.6 mph - N/A   Overcast
2:34 AM 33.8 °F 29.6 °F 24.8 °F 70% 30.03 in 10.0 mi NW 4.6 mph - N/A   Overcast
2:54 AM 33.8 °F 30.8 °F 24.8 °F 70% 30.04 in 10.0 mi NW 3.5 mph - N/A   Mostly Cloudy
3:13 AM 32.0 °F 26.4 °F 24.8 °F 75% 30.05 in 10.0 mi NW 5.8 mph - N/A   Scattered Clouds
3:33 AM 33.8 °F 28.6 °F 24.8 °F 70% 30.05 in 10.0 mi NW 5.8 mph - N/A   Mostly Cloudy
3:53 AM 33.8 °F 29.6 °F 24.8 °F 70% 30.05 in 10.0 mi NW 4.6 mph - N/A   Overcast
4:13 AM 32.0 °F 27.5 °F 23.0 °F 69% 30.05 in 10.0 mi NW 4.6 mph - N/A   Mostly Cloudy
4:34 AM 32.0 °F 27.5 °F 23.0 °F 69% 30.05 in 10.0 mi NW 4.6 mph - N/A   Scattered Clouds
5:14 AM 30.2 °F 25.4 °F 23.0 °F 75% 30.06 in 10.0 mi NW 4.6 mph - N/A   Clear
5:33 AM 28.4 °F 24.6 °F 24.8 °F 86% 30.06 in 10.0 mi NW 3.5 mph - N/A   Clear
5:54 AM 28.4 °F 24.6 °F 24.8 °F 86% 30.06 in 10.0 mi NW 3.5 mph - N/A   Clear
6:13 AM 28.4 °F 23.3 °F 24.8 °F 86% 30.06 in 10.0 mi NW 4.6 mph - N/A   Clear
6:34 AM 28.4 °F 23.3 °F 24.8 °F 86% 30.07 in 10.0 mi NW 4.6 mph - N/A   Clear
6:53 AM 28.4 °F 22.2 °F 24.8 °F 86% 30.07 in 10.0 mi NW 5.8 mph - N/A   Clear
7:13 AM 30.2 °F 24.3 °F 24.8 °F 80% 30.08 in 10.0 mi NW 5.8 mph - N/A   Mostly Cloudy
7:33 AM 30.2 °F 25.4 °F 24.8 °F 80% 30.08 in 10.0 mi NW 4.6 mph - N/A   Scattered Clouds
7:54 AM 32.0 °F 27.5 °F 24.8 °F 75% 30.08 in 10.0 mi NW 4.6 mph - N/A   Clear
8:13 AM 33.8 °F 29.6 °F 24.8 °F 70% 30.09 in 10.0 mi NW 4.6 mph - N/A   Clear
8:34 AM 35.6 °F 30.7 °F 24.8 °F 65% 30.09 in 10.0 mi NW 5.8 mph - N/A   Clear
8:53 AM 37.4 °F 31.4 °F 24.8 °F 60% 30.10 in 10.0 mi NW 8.1 mph - N/A   Clear
9:13 AM 37.4 °F 31.4 °F 24.8 °F 60% 30.10 in 10.0 mi NW 8.1 mph - N/A   Clear
9:33 AM 39.2 °F 34.2 °F 24.8 °F 56% 30.10 in 10.0 mi NW 6.9 mph - N/A   Clear
9:54 AM 41.0 °F 35.8 °F 23.0 °F 49% 30.09 in 10.0 mi NW 8.1 mph - N/A   Scattered Clouds
10:14 AM 41.0 °F 35.2 °F 21.2 °F 45% 30.09 in 10.0 mi NW 9.2 mph - N/A   Scattered Clouds
10:34 AM 42.8 °F 37.5 °F 21.2 °F 42% 30.09 in 10.0 mi WNW 9.2 mph - N/A   Clear
10:54 AM 42.8 °F 38.0 °F 19.4 °F 39% 30.09 in 10.0 mi NW 8.1 mph - N/A   Clear
11:13 AM 42.8 °F 38.0 °F 21.2 °F 42% 30.09 in 10.0 mi WNW 8.1 mph - N/A   Clear
11:34 AM 44.6 °F 41.4 °F 19.4 °F 37% 30.10 in 10.0 mi NNW 5.8 mph - N/A   Clear
11:53 AM 44.6 °F 40.2 °F 17.6 °F 34% 30.10 in 10.0 mi NW 8.1 mph - N/A   Clear
12:13 PM 46.4 °F 41.9 °F 19.4 °F 34% 30.09 in 10.0 mi WNW 9.2 mph - N/A   Clear
12:33 PM 46.4 °F 42.9 °F 17.6 °F 32% 30.09 in 10.0 mi NNW 6.9 mph - N/A   Clear
12:53 PM 46.4 °F 41.9 °F 17.6 °F 32% 30.09 in 10.0 mi NW 9.2 mph - N/A   Clear
1:13 PM 48.2 °F - 17.6 °F 30% 30.08 in 10.0 mi NW 6.9 mph - N/A   Clear
1:33 PM 48.2 °F - 17.6 °F 30% 30.08 in 10.0 mi NW 9.2 mph - N/A   Clear
1:54 PM 48.2 °F - 17.6 °F 30% 30.07 in 10.0 mi NNW 5.8 mph - N/A   Clear
2:13 PM 48.2 °F - 17.6 °F 30% 30.07 in 10.0 mi NW 6.9 mph - N/A   Clear
2:33 PM 48.2 °F - 17.6 °F 30% 30.07 in 10.0 mi NNW 8.1 mph - N/A   Clear
2:53 PM 51.8 °F - 19.4 °F 28% 30.07 in 10.0 mi WNW 5.8 mph - N/A   Clear
3:13 PM 50.0 °F - 17.6 °F 28% 30.06 in 10.0 mi NW 5.8 mph - N/A   Clear
3:33 PM 50.0 °F - 17.6 °F 28% 30.06 in 10.0 mi WNW 4.6 mph - N/A   Clear
3:53 PM 50.0 °F - 15.8 °F 26% 30.06 in 10.0 mi WNW 4.6 mph - N/A   Clear
4:14 PM 50.0 °F - 15.8 °F 26% 30.05 in 10.0 mi NNW 3.5 mph - N/A   Clear
4:33 PM 51.8 °F - 17.6 °F 26% 30.05 in 10.0 mi Calm Calm - N/A   Clear
4:53 PM 51.8 °F - 15.8 °F 24% 30.05 in 10.0 mi WNW 6.9 mph - N/A   Clear
5:13 PM 51.8 °F - 15.8 °F 24% 30.05 in 10.0 mi NW 5.8 mph - N/A   Clear
5:34 PM 51.8 °F - 15.8 °F 24% 30.05 in 10.0 mi WNW 4.6 mph - N/A   Clear
5:54 PM 51.8 °F - 15.8 °F 24% 30.05 in 10.0 mi NW 3.5 mph - N/A   Clear
6:13 PM 50.0 °F - 15.8 °F 26% 30.05 in 10.0 mi Calm Calm - N/A   Clear
6:33 PM 50.0 °F - 15.8 °F 26% 30.04 in 10.0 mi Calm Calm - N/A   Clear
6:53 PM 50.0 °F - 15.8 °F 26% 30.04 in 10.0 mi Calm Calm - N/A   Clear
7:14 PM 48.2 °F - 15.8 °F 27% 30.04 in 10.0 mi Calm Calm - N/A   Clear
7:34 PM 48.2 °F - 17.6 °F 30% 30.04 in 10.0 mi Calm Calm - N/A   Clear
7:54 PM 44.6 °F - 17.6 °F 34% 30.04 in 10.0 mi Calm Calm - N/A   Clear
8:13 PM 41.0 °F - 17.6 °F 39% 30.04 in 10.0 mi Calm Calm - N/A   Clear
8:33 PM 39.2 °F - 17.6 °F 42% 30.04 in 10.0 mi Calm Calm - N/A   Clear
8:53 PM 39.2 °F - 17.6 °F 42% 30.04 in 10.0 mi Calm Calm - N/A   Clear
9:14 PM 39.2 °F - 17.6 °F 42% 30.04 in 10.0 mi Calm Calm - N/A   Clear
9:34 PM 37.4 °F - 19.4 °F 48% 30.05 in 10.0 mi Calm Calm - N/A   Clear
9:53 PM 37.4 °F - 17.6 °F 45% 30.06 in 10.0 mi Calm Calm - N/A   Clear
10:14 PM 32.0 °F - 19.4 °F 60% 30.07 in 10.0 mi Calm Calm - N/A   Clear
10:33 PM 30.2 °F - 19.4 °F 64% 30.06 in 10.0 mi Calm Calm - N/A   Clear
10:53 PM 30.2 °F - 19.4 °F 64% 30.06 in 10.0 mi Calm Calm - N/A   Clear
11:14 PM 30.2 °F - 19.4 °F 64% 30.07 in 10.0 mi Calm Calm - N/A   Clear
11:33 PM 28.4 °F - 19.4 °F 69% 30.07 in 10.0 mi Calm Calm - N/A   Clear
11:54 PM 28.4 °F - 21.2 °F 74% 30.07 in 10.0 mi Calm Calm - N/A   Clear